Location: Le Vaud
(46.4779°N, 6.2346°E)
Time: 22:57:18
(UTC+00:00)

ATLAS CENTAUR R/B - Pass Details

Date: 18 February 2020
Orbit: 466 x 681 km, 64.7° (Epoch: 05 April)

Event Time Altitude Azimuth Distance (km) Brightness Sun altitude
Exits shadow 05:22:29 17° 299° (WNW) 1,602 3.1 -13.1°
Maximum altitude 05:23:59 20° 325° (NW) 1,466 3.1 -12.8°
Drops below altitude 10° 05:27:12 10° 12° (NNE) 1,947 4.2 -12.3°
Sets 05:29:56 0° 30° (NNE) 2,806 5.3 -11.8°
